User: anonymous   Login
Location: Caltech
(34.1382°N, 118.1253°W)
Time: 08:13:41
(UTC-08:00)
Language:

ALOS - Orbit

View from above orbital plane
View from above orbital plane
View from above satellite
View from above satellite

Ground track
Ground track

The orbit data is extracted from the following two-line orbital elements,

1 28931U 06002A   14329.55960988  .00001627  00000-0  33721-3 0  1144
2 28931 097.9627 021.8311 0002194 070.0693 290.0744 14.61482021470895
Epoch (UTC): 25 November 2014 13:25:50
Eccentricity: 0.0002194
inclination: 97.9627°
perigee height: 687 km
apogee height: 690 km
right ascension of ascending node: 21.8311°
argument of perigee: 70.0693°
revolutions per day: 14.61482021
mean anomaly at epoch: 290.0744°
orbit number at epoch: 47089

The dashed part of the orbit path shows where the satellite is in the earth's shadow,  

DLR